Fairfield, NJ

6:56 AM EST on December 10, 2016 (GMT -0500)
Essex County

Weather History for KCDW - April, 2014

Change the Weather History Date:

Wednesday, April 9, 2014

  Actual Average Record
Temperature  
Mean Temperature 48 °F -  
Max Temperature 60 °F 57 °F 87 °F (1991)
Min Temperature 37 °F 33 °F 19 °F (1985)
Degree Days  
Heating Degree Days 16    
Moisture  
Dew Point 28 °F    
Average Humidity 46    
Maximum Humidity 86    
Minimum Humidity 25    
Precipitation  
Precipitation 0.00 in - - ()
Sea Level Pressure  
Sea Level Pressure 29.79 in    
Wind  
Wind Speed 6 mph (NW)    
Max Wind Speed 17 mph    
Max Gust Speed 29 mph    
Visibility 10 miles    
Events      
Averages and records for this station are not official NWS values.
T = Trace of Precipitation, MM = Missing Value Source: NWS Daily Summary

Daily Weather History Graph

Daily Weather History Graph

Search for Another Location

Airport or City:

Trip Planner

Search our weather history database for the weather conditions in past years. The results will help you decide how hot, cold, wet, or windy it might be!

Date:

Astronomy

Apr. 09, 2014 Rise Set
Actual Time 6:27 AM EDT 7:30 PM EDT
Civil Twilight 5:59 AM EDT 7:58 PM EDT
Nautical Twilight 5:26 AM EDT 8:32 PM EDT
Astronomical Twilight 4:51 AM EDT 9:07 PM EDT
Moon 2:14 PM EDT (4/9) 3:17 AM EDT (4/9)
Length of Visible Light 13h 58m
Length of Day
13h 02m
Waxing Gibbous, 71% of the Moon is Illuminated
Apr 9
Waxing Gibbous
Apr 15
Full
Apr 22
Last Quarter
Apr 29
New
May 6
First Quarter

Hourly Weather History & Observations

Time (EDT) Temp. Windchill Dew Point Humidity Pressure Visibility Wind Dir Wind Speed Gust Speed Precip Events Conditions
12:53 AM 46.9 °F - 33.1 °F 59% 29.69 in 10.0 mi NNW 3.5 mph - N/A   Clear
1:53 AM 45.0 °F - 34.0 °F 65% 29.68 in 10.0 mi Calm Calm - N/A   Clear
2:53 AM 45.0 °F 42.6 °F 33.1 °F 63% 29.67 in 10.0 mi NNW 4.6 mph - N/A   Clear
3:53 AM 44.1 °F 42.5 °F 34.0 °F 68% 29.66 in 10.0 mi WNW 3.5 mph - N/A   Clear
4:53 AM 43.0 °F 41.3 °F 33.1 °F 68% 29.67 in 10.0 mi NW 3.5 mph - N/A   Clear
5:53 AM 39.9 °F 37.8 °F 34.0 °F 79% 29.69 in 10.0 mi South 3.5 mph - N/A   Clear
6:53 AM 37.9 °F - 34.0 °F 86% 29.72 in 10.0 mi Calm Calm - N/A   Clear
7:53 AM 45.0 °F - 34.0 °F 65% 29.74 in 10.0 mi Calm Calm - N/A   Clear
8:53 AM 48.9 °F - 33.1 °F 54% 29.75 in 10.0 mi NW 6.9 mph - N/A   Clear
9:53 AM 52.0 °F - 32.0 °F 47% 29.75 in 10.0 mi NW 9.2 mph - N/A   Clear
10:53 AM 54.0 °F - 33.1 °F 45% 29.75 in 10.0 mi NW 12.7 mph 23.0 mph N/A   Clear
11:53 AM 57.0 °F - 28.0 °F 33% 29.75 in 10.0 mi NW 13.8 mph 21.9 mph N/A   Partly Cloudy
12:53 PM 57.0 °F - 26.1 °F 30% 29.77 in 10.0 mi NW 9.2 mph 23.0 mph N/A   Clear
1:53 PM 59.0 °F - 23.0 °F 25% 29.76 in 10.0 mi WNW 17.3 mph 24.2 mph N/A   Partly Cloudy
2:53 PM 60.1 °F - 25.0 °F 26% 29.77 in 10.0 mi NW 12.7 mph 25.3 mph N/A   Scattered Clouds
3:53 PM 57.0 °F - 23.0 °F 27% 29.78 in 10.0 mi NW 17.3 mph 28.8 mph N/A   Clear
4:53 PM 57.9 °F - 24.1 °F 27% 29.81 in 10.0 mi NNW 10.4 mph 23.0 mph N/A   Scattered Clouds
5:53 PM 55.9 °F - 21.9 °F 27% 29.83 in 10.0 mi NNW 13.8 mph 20.7 mph N/A   Clear
6:53 PM 54.0 °F - 23.0 °F 30% 29.86 in 10.0 mi NNW 9.2 mph 24.2 mph N/A   Clear
7:53 PM 51.1 °F - 19.9 °F 29% 29.91 in 10.0 mi NNW 4.6 mph 18.4 mph N/A   Clear
8:53 PM 48.9 °F - 21.0 °F 33% 29.96 in 10.0 mi Variable 4.6 mph - N/A   Clear
9:53 PM 46.9 °F - 21.0 °F 36% 30.00 in 10.0 mi NNW 3.5 mph - N/A   Clear
10:53 PM 46.0 °F - 21.0 °F 37% 30.03 in 10.0 mi Calm Calm - N/A   Clear
11:53 PM 44.1 °F - 17.1 °F 34% 30.07 in 10.0 mi Calm Calm - N/A   Clear